When you browse on this site, cookies collect data to enhance your experience and personalize the content and advertising you see.
Visit our Privacy Policy to learn more. By continuing to use the site, you agree to this use of cookies and data.
  • Em Portugal
  • Lista de países
  • Para 7 dias
  • Temperatura da água
  • Mapa do tempo
  • Widgets de tempo
  • user-avatar
    Iniciar Sessão

    Previsão horária em Etchmiadzin

    Hoje, 24 Outubro, Quinta-feira

    Tempo Temperatura Precipitação Vento Pressão Humidade
    00:00 +13°C° 0 mm 1 m/s 689 mmHg 59%
    01:00 +13°C° 0 mm 1 m/s 688 mmHg 60%
    02:00 +13°C° 0 mm 1 m/s 688 mmHg 60%
    03:00 +12°C° 0 mm 1 m/s 688 mmHg 62%
    04:00 +12°C° 0 mm 1 m/s 688 mmHg 63%
    05:00 +12°C° 0 mm 1 m/s 688 mmHg 64%
    06:00 +11°C° 0 mm 1 m/s 689 mmHg 64%
    07:00 +13°C° 0 mm 1 m/s 689 mmHg 57%
    08:00 +15°C° 0 mm 1 m/s 689 mmHg 49%
    09:00 +18°C° 0 mm 1 m/s 690 mmHg 42%
    10:00 +19°C° 0 mm 1 m/s 690 mmHg 40%
    11:00 +21°C° 0 mm 1 m/s 689 mmHg 38%
    12:00 +22°C° 0 mm 1 m/s 689 mmHg 36%
    13:00 +22°C° 0 mm 1 m/s 689 mmHg 35%
    14:00 +22°C° 0 mm 1 m/s 689 mmHg 34%
    15:00 +23°C° 0 mm 1 m/s 689 mmHg 33%
    16:00 +21°C° 0 mm 1 m/s 688 mmHg 38%
    17:00 +19°C° 0 mm 1 m/s 688 mmHg 42%
    18:00 +16°C° 0 mm 1 m/s 688 mmHg 47%
    19:00 +16°C° 0 mm 1 m/s 688 mmHg 48%
    20:00 +15°C° 0 mm 1 m/s 688 mmHg 49%
    21:00 +15°C° 0 mm 2 m/s 688 mmHg 50%
    22:00 +14°C° 0 mm 2 m/s 688 mmHg 52%
    23:00 +14°C° 0 mm 1 m/s 688 mmHg 54%

    Amanhã, 25 Outubro, Sexta-feira

    Tempo Temperatura Precipitação Vento Pressão Humidade
    00:00 +13°C° 0 mm 1 m/s 688 mmHg 55%
    01:00 +13°C° 0 mm 1 m/s 688 mmHg 57%
    02:00 +13°C° 0 mm 1 m/s 688 mmHg 59%
    03:00 +12°C° 0 mm 1 m/s 687 mmHg 61%
    04:00 +12°C° 0 mm 1 m/s 687 mmHg 63%
    05:00 +11°C° 0 mm 1 m/s 687 mmHg 64%
    06:00 +11°C° 0 mm 1 m/s 687 mmHg 66%
    07:00 +13°C° 0 mm 1 m/s 688 mmHg 58%
    08:00 +15°C° 0 mm 1 m/s 688 mmHg 50%
    09:00 +18°C° 0 mm 1 m/s 688 mmHg 42%
    10:00 +20°C° 0 mm 1 m/s 688 mmHg 39%
    11:00 +21°C° 0 mm 1 m/s 688 mmHg 37%
    12:00 +21°C° 0 mm 2 m/s 688 mmHg 34%
    13:00 +22°C° 0 mm 1 m/s 688 mmHg 33%
    14:00 +23°C° 0 mm 1 m/s 687 mmHg 31%
    15:00 +23°C° 0 mm 1 m/s 687 mmHg 30%
    16:00 +21°C° 0 mm 1 m/s 687 mmHg 35%
    17:00 +19°C° 0 mm 1 m/s 687 mmHg 40%
    18:00 +15°C° 0 mm 0 m/s 686 mmHg 44%
    19:00 +16°C° 0 mm 1 m/s 686 mmHg 45%
    20:00 +15°C° 0 mm 1 m/s 687 mmHg 46%
    21:00 +15°C° 0 mm 1 m/s 687 mmHg 47%
    22:00 +14°C° 0 mm 1 m/s 687 mmHg 50%
    23:00 +14°C° 0 mm 1 m/s 687 mmHg 52%

    Depois de amanhã, 26 Outubro, Sábado

    Tempo Temperatura Precipitação Vento Pressão Humidade
    00:00 +13°C° 0 mm 1 m/s 686 mmHg 54%
    01:00 +13°C° 0 mm 1 m/s 686 mmHg 55%
    02:00 +13°C° 0 mm 1 m/s 686 mmHg 56%
    03:00 +12°C° 0 mm 1 m/s 686 mmHg 58%
    04:00 +12°C° 0 mm 1 m/s 686 mmHg 59%
    05:00 +12°C° 0 mm 1 m/s 686 mmHg 60%
    06:00 +11°C° 0 mm 1 m/s 686 mmHg 62%
    07:00 +13°C° 0 mm 1 m/s 687 mmHg 54%
    08:00 +16°C° 0 mm 1 m/s 687 mmHg 47%
    09:00 +19°C° 0 mm 1 m/s 688 mmHg 39%
    10:00 +20°C° 0 mm 1 m/s 688 mmHg 37%
    11:00 +21°C° 0 mm 1 m/s 688 mmHg 34%
    12:00 +22°C° 0 mm 1 m/s 688 mmHg 31%
    13:00 +23°C° 0 mm 1 m/s 688 mmHg 30%
    14:00 +23°C° 0 mm 1 m/s 687 mmHg 29%
    15:00 +23°C° 0 mm 1 m/s 687 mmHg 28%
    16:00 +21°C° 0 mm 1 m/s 687 mmHg 33%
    17:00 +19°C° 0 mm 2 m/s 687 mmHg 39%
    18:00 +17°C° 0 mm 2 m/s 687 mmHg 44%
    19:00 +16°C° 0 mm 2 m/s 687 mmHg 46%
    20:00 +15°C° 0 mm 2 m/s 687 mmHg 48%
    21:00 +15°C° 0 mm 2 m/s 688 mmHg 50%
    22:00 +14°C° 0 mm 2 m/s 688 mmHg 52%
    23:00 +14°C° 0 mm 2 m/s 688 mmHg 53%

    , 27 Outubro, Domingo

    Tempo Temperatura Precipitação Vento Pressão Humidade
    00:00 +13°C° 0 mm 2 m/s 688 mmHg 55%
    01:00 +13°C° 0 mm 2 m/s 688 mmHg 57%
    02:00 +12°C° 0 mm 2 m/s 688 mmHg 59%
    03:00 +12°C° 0 mm 1 m/s 688 mmHg 62%
    04:00 +11°C° 0 mm 1 m/s 688 mmHg 63%
    05:00 +11°C° 0 mm 1 m/s 688 mmHg 64%
    06:00 +10°C° 0 mm 1 m/s 688 mmHg 66%
    07:00 +12°C° 0 mm 1 m/s 688 mmHg 58%
    08:00 +14°C° 0 mm 1 m/s 689 mmHg 50%
    09:00 +16°C° 0 mm 1 m/s 689 mmHg 42%
    10:00 +19°C° 0 mm 1 m/s 689 mmHg 40%
    11:00 +20°C° 0 mm 1 m/s 689 mmHg 37%
    12:00 +21°C° 0 mm 1 m/s 689 mmHg 35%
    13:00 +22°C° 0 mm 1 m/s 689 mmHg 33%
    14:00 +22°C° 0 mm 1 m/s 689 mmHg 31%
    15:00 +23°C° 0 mm 1 m/s 688 mmHg 29%
    16:00 +20°C° 0 mm 1 m/s 688 mmHg 34%
    17:00 +16°C° 0 mm 0 m/s 688 mmHg 38%
    18:00 +14°C° 0 mm 0 m/s 688 mmHg 42%
    19:00 +15°C° 0 mm 1 m/s 688 mmHg 43%
    20:00 +15°C° 0 mm 1 m/s 688 mmHg 44%
    21:00 +14°C° 0 mm 1 m/s 688 mmHg 45%
    22:00 +14°C° 0 mm 1 m/s 688 mmHg 45%
    23:00 +13°C° 0 mm 1 m/s 688 mmHg 46%

    27 Outubro, Domingo

    Tempo Temperatura Precipitação Vento Pressão Humidade
    00:00 +13°C° 0 mm 2 m/s 688 mmHg 55%
    01:00 +13°C° 0 mm 2 m/s 688 mmHg 57%
    02:00 +12°C° 0 mm 2 m/s 688 mmHg 59%
    03:00 +12°C° 0 mm 1 m/s 688 mmHg 62%
    04:00 +11°C° 0 mm 1 m/s 688 mmHg 63%
    05:00 +11°C° 0 mm 1 m/s 688 mmHg 64%
    06:00 +10°C° 0 mm 1 m/s 688 mmHg 66%
    07:00 +12°C° 0 mm 1 m/s 688 mmHg 58%
    08:00 +14°C° 0 mm 1 m/s 689 mmHg 50%
    09:00 +16°C° 0 mm 1 m/s 689 mmHg 42%
    10:00 +19°C° 0 mm 1 m/s 689 mmHg 40%
    11:00 +20°C° 0 mm 1 m/s 689 mmHg 37%
    12:00 +21°C° 0 mm 1 m/s 689 mmHg 35%
    13:00 +22°C° 0 mm 1 m/s 689 mmHg 33%
    14:00 +22°C° 0 mm 1 m/s 689 mmHg 31%
    15:00 +23°C° 0 mm 1 m/s 688 mmHg 29%
    16:00 +20°C° 0 mm 1 m/s 688 mmHg 34%
    17:00 +16°C° 0 mm 0 m/s 688 mmHg 38%
    18:00 +14°C° 0 mm 0 m/s 688 mmHg 42%
    19:00 +15°C° 0 mm 1 m/s 688 mmHg 43%
    20:00 +15°C° 0 mm 1 m/s 688 mmHg 44%
    21:00 +14°C° 0 mm 1 m/s 688 mmHg 45%
    22:00 +14°C° 0 mm 1 m/s 688 mmHg 45%
    23:00 +13°C° 0 mm 1 m/s 688 mmHg 46%

    28 Outubro, Segunda-feira

    Tempo Temperatura Precipitação Vento Pressão Humidade
    00:00 +13°C° 0 mm 1 m/s 688 mmHg 47%
    01:00 +12°C° 0 mm 1 m/s 688 mmHg 48%
    02:00 +12°C° 0 mm 1 m/s 688 mmHg 49%
    03:00 +12°C° 0 mm 1 m/s 688 mmHg 50%
    04:00 +11°C° 0 mm 1 m/s 688 mmHg 52%
    05:00 +11°C° 0 mm 1 m/s 688 mmHg 53%
    06:00 +11°C° 0 mm 1 m/s 688 mmHg 55%
    07:00 +13°C° 0 mm 1 m/s 688 mmHg 48%
    08:00 +14°C° 0 mm 0 m/s 688 mmHg 41%
    09:00 +16°C° 0 mm 0 m/s 689 mmHg 34%
    10:00 +19°C° 0 mm 1 m/s 689 mmHg 32%
    11:00 +20°C° 0 mm 1 m/s 688 mmHg 31%
    12:00 +21°C° 0 mm 1 m/s 688 mmHg 30%
    13:00 +22°C° 0 mm 1 m/s 688 mmHg 29%
    14:00 +22°C° 0 mm 1 m/s 687 mmHg 28%
    15:00 +22°C° 0 mm 1 m/s 687 mmHg 27%
    16:00 +20°C° 0 mm 1 m/s 687 mmHg 32%
    17:00 +18°C° 0 mm 1 m/s 686 mmHg 36%
    18:00 +14°C° 0 mm 0 m/s 686 mmHg 41%
    19:00 +15°C° 0 mm 1 m/s 686 mmHg 42%
    20:00 +14°C° 0 mm 1 m/s 686 mmHg 43%
    21:00 +14°C° 0 mm 1 m/s 686 mmHg 44%
    22:00 +13°C° 0 mm 1 m/s 686 mmHg 45%
    23:00 +13°C° 0 mm 1 m/s 685 mmHg 46%

    29 Outubro, Terça-feira

    Tempo Temperatura Precipitação Vento Pressão Humidade
    00:00 +12°C° 0 mm 1 m/s 685 mmHg 47%
    01:00 +12°C° 0 mm 1 m/s 685 mmHg 49%
    02:00 +12°C° 0 mm 1 m/s 685 mmHg 51%
    03:00 +11°C° 0 mm 1 m/s 684 mmHg 53%
    04:00 +11°C° 0 mm 1 m/s 684 mmHg 54%
    05:00 +11°C° 0 mm 1 m/s 684 mmHg 54%
    06:00 +11°C° 0 mm 1 m/s 684 mmHg 55%
    07:00 +13°C° 0 mm 1 m/s 685 mmHg 47%
    08:00 +15°C° 0 mm 1 m/s 685 mmHg 40%
    09:00 +17°C° 0 mm 0 m/s 685 mmHg 33%
    10:00 +20°C° 0 mm 1 m/s 685 mmHg 30%
    11:00 +21°C° 0 mm 1 m/s 685 mmHg 28%
    12:00 +22°C° 0 mm 1 m/s 685 mmHg 26%
    13:00 +23°C° 0 mm 1 m/s 685 mmHg 24%
    14:00 +23°C° 0 mm 1 m/s 685 mmHg 23%
    15:00 +24°C° 0 mm 1 m/s 684 mmHg 21%
    16:00 +21°C° 0 mm 2 m/s 684 mmHg 25%
    17:00 +19°C° 0 mm 2 m/s 684 mmHg 28%
    18:00 +17°C° 0 mm 2 m/s 684 mmHg 32%
    19:00 +16°C° 0 mm 2 m/s 684 mmHg 33%
    20:00 +16°C° 0 mm 2 m/s 684 mmHg 34%
    21:00 +15°C° 0 mm 1 m/s 685 mmHg 35%
    22:00 +15°C° 0 mm 1 m/s 685 mmHg 37%
    23:00 +14°C° 0 mm 1 m/s 685 mmHg 38%
    Mostrar mais